When you browse on this site, cookies collect data to enhance your experience and personalize the content and advertising you see.
Visit our Privacy Policy to learn more. By continuing to use the site, you agree to this use of cookies and data.
  • In Latvia
  • List of Countries
  • For 7 days
  • Water Temperature
  • Weather Map
  • Weather Widgets
  • user-avatar
    Login

    Hourly Weather Boguszów-Gorce

    Today, 26 May, Tuesday

    Time Temperature Precipitation Wind Pressure Humidity
    00:00 +6°C° 0 mm 2 mps 723 mmHg 96%
    01:00 +6°C° 0 mm 2 mps 723 mmHg 97%
    02:00 +6°C° 0 mm 2 mps 723 mmHg 97%
    03:00 +6°C° 0 mm 2 mps 723 mmHg 97%
    04:00 +6°C° 0 mm 2 mps 723 mmHg 97%
    05:00 +7°C° 0.1 mm 2 mps 724 mmHg 96%
    06:00 +7°C° 0.1 mm 3 mps 724 mmHg 95%
    07:00 +7°C° 0.1 mm 3 mps 724 mmHg 94%
    08:00 +8°C° 0.2 mm 3 mps 724 mmHg 92%
    09:00 +9°C° 0.2 mm 3 mps 725 mmHg 89%
    10:00 +10°C° 0.2 mm 4 mps 725 mmHg 86%
    11:00 +11°C° 0.4 mm 4 mps 725 mmHg 85%
    12:00 +11°C° 0.4 mm 4 mps 724 mmHg 83%
    13:00 +12°C° 0.4 mm 4 mps 724 mmHg 81%
    14:00 +12°C° 0.2 mm 4 mps 724 mmHg 76%
    15:00 +13°C° 0.2 mm 5 mps 724 mmHg 72%
    16:00 +14°C° 0.2 mm 5 mps 724 mmHg 68%
    17:00 +13°C° 0 mm 4 mps 724 mmHg 73%
    18:00 +12°C° 0 mm 3 mps 724 mmHg 78%
    19:00 +11°C° 0 mm 3 mps 724 mmHg 83%
    20:00 +10°C° 0 mm 2 mps 724 mmHg 86%
    21:00 +8°C° 0 mm 2 mps 724 mmHg 89%
    22:00 +7°C° 0 mm 2 mps 725 mmHg 92%
    23:00 +7°C° 0 mm 2 mps 724 mmHg 92%

    Tomorrow, 27 May, Wednesday

    Time Temperature Precipitation Wind Pressure Humidity
    00:00 +6°C° 0 mm 2 mps 724 mmHg 92%
    01:00 +7°C° 0 mm 1 mps 724 mmHg 93%
    02:00 +7°C° 0 mm 1 mps 724 mmHg 93%
    03:00 +7°C° 0 mm 1 mps 724 mmHg 93%
    04:00 +6°C° 0 mm 1 mps 724 mmHg 93%
    05:00 +7°C° 0 mm 2 mps 724 mmHg 88%
    06:00 +9°C° 0 mm 2 mps 725 mmHg 83%
    07:00 +12°C° 0 mm 2 mps 725 mmHg 79%
    08:00 +13°C° 0 mm 2 mps 725 mmHg 73%
    09:00 +13°C° 0 mm 3 mps 725 mmHg 67%
    10:00 +14°C° 0 mm 3 mps 725 mmHg 61%
    11:00 +16°C° 0 mm 3 mps 725 mmHg 58%
    12:00 +16°C° 0 mm 3 mps 724 mmHg 55%
    13:00 +17°C° 0 mm 3 mps 724 mmHg 53%
    14:00 +17°C° 0 mm 3 mps 724 mmHg 53%
    15:00 +17°C° 0 mm 3 mps 723 mmHg 53%
    16:00 +17°C° 0 mm 3 mps 723 mmHg 53%
    17:00 +16°C° 0 mm 2 mps 723 mmHg 60%
    18:00 +14°C° 0 mm 2 mps 722 mmHg 66%
    19:00 +13°C° 0 mm 1 mps 722 mmHg 73%
    20:00 +12°C° 0 mm 1 mps 722 mmHg 73%
    21:00 +11°C° 0 mm 1 mps 722 mmHg 74%
    22:00 +10°C° 0 mm 1 mps 721 mmHg 74%
    23:00 +10°C° 0.1 mm 1 mps 721 mmHg 75%

    Day after tomorrow, 28 May, Thursday

    Time Temperature Precipitation Wind Pressure Humidity
    00:00 +10°C° 0.1 mm 1 mps 721 mmHg 76%
    01:00 +10°C° 0.1 mm 1 mps 722 mmHg 77%
    02:00 +9°C° 0.3 mm 2 mps 721 mmHg 83%
    03:00 +9°C° 0.3 mm 2 mps 721 mmHg 90%
    04:00 +8°C° 0.3 mm 3 mps 721 mmHg 96%
    05:00 +8°C° 0 mm 3 mps 721 mmHg 93%
    06:00 +7°C° 0 mm 4 mps 722 mmHg 90%
    07:00 +8°C° 0 mm 4 mps 722 mmHg 87%
    08:00 +10°C° 0 mm 4 mps 722 mmHg 79%
    09:00 +11°C° 0 mm 4 mps 722 mmHg 71%
    10:00 +12°C° 0 mm 5 mps 722 mmHg 64%
    11:00 +12°C° 0 mm 5 mps 721 mmHg 61%
    12:00 +13°C° 0 mm 5 mps 721 mmHg 58%
    13:00 +14°C° 0 mm 5 mps 721 mmHg 55%
    14:00 +14°C° 0 mm 5 mps 720 mmHg 57%
    15:00 +14°C° 0 mm 5 mps 720 mmHg 58%
    16:00 +14°C° 0 mm 6 mps 720 mmHg 60%
    17:00 +13°C° 0.1 mm 5 mps 720 mmHg 66%
    18:00 +12°C° 0.1 mm 5 mps 720 mmHg 72%
    19:00 +11°C° 0.1 mm 4 mps 720 mmHg 78%
    20:00 +10°C° 0.1 mm 4 mps 720 mmHg 83%
    21:00 +8°C° 0.1 mm 3 mps 720 mmHg 89%
    22:00 +7°C° 0.1 mm 2 mps 720 mmHg 95%
    23:00 +7°C° 0 mm 2 mps 720 mmHg 95%

    29 May, Friday

    Time Temperature Precipitation Wind Pressure Humidity
    00:00 +6°C° 0 mm 2 mps 720 mmHg 94%
    01:00 +7°C° 0 mm 1 mps 720 mmHg 94%
    02:00 +6°C° 0 mm 1 mps 720 mmHg 94%
    03:00 +6°C° 0 mm 1 mps 720 mmHg 94%
    04:00 +5°C° 0 mm 1 mps 720 mmHg 94%
    05:00 +5°C° 0 mm 2 mps 721 mmHg 91%
    06:00 +5°C° 0 mm 3 mps 721 mmHg 88%
    07:00 +7°C° 0 mm 3 mps 721 mmHg 84%
    08:00 +7°C° 0 mm 4 mps 721 mmHg 75%
    09:00 +8°C° 0 mm 4 mps 721 mmHg 66%
    10:00 +9°C° 0 mm 5 mps 721 mmHg 57%
    11:00 +10°C° 0 mm 5 mps 721 mmHg 55%
    12:00 +12°C° 0 mm 5 mps 721 mmHg 54%
    13:00 +13°C° 0 mm 5 mps 721 mmHg 53%
    14:00 +12°C° 0.1 mm 5 mps 720 mmHg 55%
    15:00 +12°C° 0.1 mm 5 mps 720 mmHg 58%
    16:00 +12°C° 0.1 mm 4 mps 720 mmHg 60%
    17:00 +11°C° 0.1 mm 3 mps 720 mmHg 67%
    18:00 +10°C° 0.1 mm 2 mps 719 mmHg 75%
    19:00 +10°C° 0.1 mm 1 mps 719 mmHg 82%
    20:00 +10°C° 0.1 mm 1 mps 719 mmHg 84%
    21:00 +9°C° 0.1 mm 1 mps 719 mmHg 85%
    22:00 +8°C° 0.1 mm 1 mps 720 mmHg 87%
    23:00 +8°C° 0.1 mm 1 mps 719 mmHg 88%

    30 May, Saturday

    Time Temperature Precipitation Wind Pressure Humidity
    00:00 +8°C° 0.1 mm 1 mps 719 mmHg 88%
    01:00 +8°C° 0.1 mm 1 mps 719 mmHg 89%
    02:00 +8°C° 0 mm 1 mps 719 mmHg 90%
    03:00 +7°C° 0 mm 1 mps 719 mmHg 92%
    04:00 +5°C° 0 mm 2 mps 719 mmHg 94%
    05:00 +6°C° 0 mm 2 mps 719 mmHg 89%
    06:00 +7°C° 0 mm 3 mps 719 mmHg 84%
    07:00 +7°C° 0 mm 4 mps 719 mmHg 79%
    08:00 +8°C° 0 mm 4 mps 719 mmHg 74%
    09:00 +8°C° 0 mm 5 mps 719 mmHg 70%
    10:00 +9°C° 0 mm 5 mps 719 mmHg 65%
    11:00 +10°C° 0 mm 5 mps 719 mmHg 62%
    12:00 +10°C° 0 mm 5 mps 719 mmHg 59%
    13:00 +12°C° 0 mm 4 mps 719 mmHg 56%
    14:00 +12°C° 0.1 mm 4 mps 718 mmHg 57%
    15:00 +12°C° 0.1 mm 4 mps 718 mmHg 59%
    16:00 +12°C° 0.1 mm 4 mps 718 mmHg 60%
    17:00 +11°C° 0.1 mm 3 mps 718 mmHg 67%
    18:00 +10°C° 0.1 mm 2 mps 718 mmHg 74%
    19:00 +9°C° 0.1 mm 2 mps 717 mmHg 81%
    20:00 +8°C° 0 mm 2 mps 717 mmHg 83%
    21:00 +8°C° 0 mm 1 mps 718 mmHg 85%
    22:00 +7°C° 0 mm 1 mps 718 mmHg 86%
    23:00 +7°C° 0 mm 1 mps 718 mmHg 87%

    31 May, Sunday

    Time Temperature Precipitation Wind Pressure Humidity
    00:00 +7°C° 0 mm 1 mps 717 mmHg 88%
    01:00 +6°C° 0 mm 1 mps 717 mmHg 89%
    02:00 +6°C° 0 mm 1 mps 717 mmHg 90%
    03:00 +6°C° 0 mm 1 mps 717 mmHg 92%
    04:00 +6°C° 0 mm 1 mps 717 mmHg 93%
    05:00 +7°C° 0 mm 1 mps 718 mmHg 89%
    06:00 +7°C° 0 mm 2 mps 718 mmHg 85%
    07:00 +9°C° 0 mm 2 mps 718 mmHg 81%
    08:00 +10°C° 0.1 mm 2 mps 718 mmHg 79%
    09:00 +12°C° 0.1 mm 2 mps 718 mmHg 76%
    10:00 +11°C° 0.1 mm 3 mps 718 mmHg 73%
    11:00 +12°C° 0.3 mm 3 mps 718 mmHg 70%
    12:00 +13°C° 0.3 mm 3 mps 718 mmHg 68%
    13:00 +14°C° 0.3 mm 3 mps 718 mmHg 65%
    14:00 +14°C° 0.3 mm 3 mps 717 mmHg 66%
    15:00 +14°C° 0.3 mm 3 mps 717 mmHg 68%
    16:00 +14°C° 0.3 mm 3 mps 717 mmHg 70%
    17:00 +14°C° 0.1 mm 2 mps 716 mmHg 74%
    18:00 +13°C° 0.1 mm 2 mps 716 mmHg 79%
    19:00 +13°C° 0.1 mm 1 mps 716 mmHg 83%
    20:00 +11°C° 0 mm 1 mps 716 mmHg 85%
    21:00 +10°C° 0 mm 1 mps 716 mmHg 87%
    22:00 +9°C° 0 mm 1 mps 716 mmHg 89%
    23:00 +9°C° 0 mm 1 mps 716 mmHg 90%
    Show more